Regional Weather Roundup
Issued by NWS

Home | Current Version | Previous Version | Graphics & Text | Print | Product List | Glossary On
Versions: 1 2 3 4 5 6 7 8 9 10 11 12 13 14 15 16 17 18 19 20 21 22 23 24 25 26 27 28 29 30 31 32 33 34 35 36 37 38 39 40 41 42 43 44 45 46 47 48 49 50
000
ASUS43 KLMK 281710
RWRKY
KENTUCKY REGIONAL WEATHER ROUNDUP
NATIONAL WEATHER SERVICE LOUISVILLE KY
100 PM EDT THU APR 28 2016

NOTE "FAIR" INDICATES FEW OR NO CLOUDS BELOW 12,000 FEET
WITH NO SIGNIFICANT WEATHER AND/OR OBSTRUCTIONS TO VISIBILITY.

KYZ001>023-026-027-061>063-070>075-281800-
WESTERN AND SOUTH CENTRAL KENTUCKY

CITY           SKY/WX    TMP DP  RH WIND       PRES   REMARKS
PADUCAH        SUNNY     74  53  48 W14       29.89R
HENDERSON      SUNNY     73  54  49 W12G20    29.86R
OWENSBORO      SUNNY     75  59  57 SW14      29.87R
HOPKINSVILLE   MOSUNNY   74  62  65 W10       29.90R
BOWLING GREEN  PTSUNNY   78  65  63 W10       29.88S
GLASGOW        PTSUNNY   75  63  66 SW9       29.88S
$$

KYZ024-025-028>034-038-045-046-053-281800-
NORTH CENTRAL KENTUCKY

CITY           SKY/WX    TMP DP  RH WIND       PRES   REMARKS
LOUISVILLE/SDF PTSUNNY   75  61  61 W10G22    29.84F
LOUISVILLE/LOU PTSUNNY   74  60  61 SW10G20   29.85R
FORT KNOX      PTSUNNY   74  61  63 W16G24    29.84S
$$

KYZ035>037-039>044-047>052-055>060-089>105-281800-
NORTHEAST KENTUCKY

CITY           SKY/WX    TMP DP  RH WIND       PRES   REMARKS
LEXINGTON      MOSUNNY   74  62  66 SW14      29.86S
COVINGTON      PTSUNNY   72  64  78 SW8       29.83S
FRANKFORT      MOSUNNY   75  61  61 SW14      29.85R
$$

KYZ054-064>069-076>088-106>120-281800-
SOUTHEAST KENTUCKY

CITY           SKY/WX    TMP DP  RH WIND       PRES   REMARKS
JACKSON        MOSUNNY   75  63  66 VRB5      29.89F
LONDON         MOSUNNY   74  60  61 W12       29.89F
SOMERSET       MOSUNNY   73  61  64 W10G20    29.90F
MIDDLESBORO    MOSUNNY   78  62  58 S7        29.91F
MONTICELLO     MOSUNNY   76  62  62 W20       29.92R
$$





USA.gov is the U.S. government's official web portal to all federal, state and local government web resources and services.